Time,TemperatureF,DewpointF,PressureIn,WindDirection,WindDirectionDegrees,WindSpeedMPH,WindSpeedGustMPH,Humidity,HourlyPrecipIn,Conditions,Clouds,dailyrainin,SoftwareType,DateUTC
2013-01-18 00:00:00,20.0,15.8,23.51,WNW,293,0.0,0.0,84,0.00,,,0.00,WUHU216HW,2013-01-18 07:00:00,
2013-01-18 00:05:00,20.0,15.8,23.51,WNW,293,0.0,0.0,84,0.00,,,0.00,WUHU216HW,2013-01-18 07:05:00,
2013-01-18 00:30:00,19.4,15.8,23.51,SW,225,0.4,0.4,86,0.00,,,0.00,WUHU216HW,2013-01-18 07:30:00,
2013-01-18 00:35:00,19.4,15.8,23.51,SW,225,0.4,0.4,86,0.00,,,0.00,WUHU216HW,2013-01-18 07:35:00,
2013-01-18 01:00:00,19.8,15.7,23.51,WSW,248,0.0,0.0,84,0.00,,,0.00,WUHU216HW,2013-01-18 08:00:00,
2013-01-18 01:05:00,19.8,15.7,23.51,WSW,248,0.0,0.0,84,0.00,,,0.00,WUHU216HW,2013-01-18 08:05:00,
2013-01-18 01:30:00,19.6,15.5,23.50,West,270,0.0,0.0,84,0.00,,,0.00,WUHU216HW,2013-01-18 08:30:00,
2013-01-18 01:35:00,19.6,15.5,23.50,West,270,0.0,0.0,84,0.00,,,0.00,WUHU216HW,2013-01-18 08:35:00,
2013-01-18 02:00:00,19.4,15.0,23.51,WSW,248,1.3,1.3,83,0.00,,,0.00,WUHU216HW,2013-01-18 09:00:00,
2013-01-18 02:05:00,19.4,15.0,23.51,WSW,248,1.3,1.3,83,0.00,,,0.00,WUHU216HW,2013-01-18 09:05:00,
2013-01-18 02:30:00,19.3,15.1,23.50,WSW,248,1.1,1.1,84,0.00,,,0.00,WUHU216HW,2013-01-18 09:30:00,
2013-01-18 02:35:00,19.3,15.1,23.50,WSW,248,1.1,1.1,84,0.00,,,0.00,WUHU216HW,2013-01-18 09:35:00,
2013-01-18 03:00:00,19.3,15.1,23.50,WSW,248,0.0,0.0,84,0.00,,,0.00,WUHU216HW,2013-01-18 10:00:00,
2013-01-18 03:05:00,19.3,15.1,23.50,WSW,248,0.0,0.0,84,0.00,,,0.00,WUHU216HW,2013-01-18 10:05:00,
2013-01-18 03:30:00,18.7,14.3,23.49,WSW,248,0.4,0.4,83,0.00,,,0.00,WUHU216HW,2013-01-18 10:30:00,
2013-01-18 03:35:00,18.7,14.3,23.49,WSW,248,0.4,0.4,83,0.00,,,0.00,WUHU216HW,2013-01-18 10:35:00,
2013-01-18 04:00:00,19.1,14.4,23.49,WSW,248,1.6,1.6,82,0.00,,,0.00,WUHU216HW,2013-01-18 11:00:00,
2013-01-18 04:05:00,19.1,14.4,23.49,WSW,248,1.6,1.6,82,0.00,,,0.00,WUHU216HW,2013-01-18 11:05:00,
2013-01-18 04:30:00,19.1,14.7,23.48,WSW,248,0.4,0.4,83,0.00,,,0.00,WUHU216HW,2013-01-18 11:30:00,
2013-01-18 04:35:00,19.1,14.7,23.48,WSW,248,0.4,0.4,83,0.00,,,0.00,WUHU216HW,2013-01-18 11:35:00,
2013-01-18 05:00:00,18.5,14.1,23.49,SW,225,1.6,1.6,83,0.00,,,0.00,WUHU216HW,2013-01-18 12:00:00,
2013-01-18 05:05:00,18.5,14.1,23.49,SW,225,1.6,1.6,83,0.00,,,0.00,WUHU216HW,2013-01-18 12:05:00,
2013-01-18 05:30:00,18.2,14.0,23.48,WSW,248,0.2,0.2,84,0.00,,,0.00,WUHU216HW,2013-01-18 12:30:00,
2013-01-18 05:35:00,18.2,14.0,23.48,WSW,248,0.2,0.2,84,0.00,,,0.00,WUHU216HW,2013-01-18 12:35:00,
2013-01-18 06:00:00,18.2,14.0,23.48,WSW,248,0.0,0.0,84,0.00,,,0.00,WUHU216HW,2013-01-18 13:00:00,
2013-01-18 06:05:00,18.2,14.0,23.48,WSW,248,0.0,0.0,84,0.00,,,0.00,WUHU216HW,2013-01-18 13:05:00,
2013-01-18 06:30:00,18.0,13.6,23.47,WSW,248,0.7,0.7,83,0.00,,,0.00,WUHU216HW,2013-01-18 13:30:00,
2013-01-18 06:35:00,18.0,13.6,23.47,WSW,248,0.7,0.7,83,0.00,,,0.00,WUHU216HW,2013-01-18 13:35:00,
2013-01-18 07:00:00,18.0,13.9,23.47,WSW,248,0.0,0.0,84,0.00,,,0.00,WUHU216HW,2013-01-18 14:00:00,
2013-01-18 07:05:00,18.0,13.9,23.47,WSW,248,0.0,0.0,84,0.00,,,0.00,WUHU216HW,2013-01-18 14:05:00,
2013-01-18 07:30:00,18.2,13.0,23.47,West,270,0.0,0.0,80,0.00,,,0.00,WUHU216HW,2013-01-18 14:30:00,
2013-01-18 07:35:00,18.2,13.0,23.47,West,270,0.0,0.0,80,0.00,,,0.00,WUHU216HW,2013-01-18 14:35:00,
2013-01-18 08:00:00,17.6,12.7,23.48,WSW,248,0.9,0.9,81,0.00,,,0.00,WUHU216HW,2013-01-18 15:00:00,
2013-01-18 08:05:00,17.6,12.7,23.48,WSW,248,0.9,0.9,81,0.00,,,0.00,WUHU216HW,2013-01-18 15:05:00,
2013-01-18 08:30:00,18.4,13.4,23.49,WSW,248,0.0,0.0,81,0.00,,,0.00,WUHU216HW,2013-01-18 15:30:00,
2013-01-18 08:35:00,18.4,13.4,23.49,WSW,248,0.0,0.0,81,0.00,,,0.00,WUHU216HW,2013-01-18 15:35:00,
2013-01-18 09:00:00,20.0,15.3,23.50,SW,225,1.1,1.1,82,0.00,,,0.00,WUHU216HW,2013-01-18 16:00:00,
2013-01-18 09:05:00,20.0,15.3,23.50,SW,225,1.1,1.1,82,0.00,,,0.00,WUHU216HW,2013-01-18 16:05:00,
2013-01-18 09:30:00,20.9,16.2,23.51,SE,135,0.0,0.0,82,0.00,,,0.00,WUHU216HW,2013-01-18 16:30:00,
2013-01-18 09:35:00,20.9,16.2,23.51,SE,135,0.0,0.0,82,0.00,,,0.00,WUHU216HW,2013-01-18 16:35:00,
2013-01-18 10:00:00,22.7,18.0,23.51,NNW,338,0.4,0.4,82,0.00,,,0.00,WUHU216HW,2013-01-18 17:00:00,
2013-01-18 10:05:00,22.7,18.0,23.51,NNW,338,0.4,0.4,82,0.00,,,0.00,WUHU216HW,2013-01-18 17:05:00,
2013-01-18 10:30:00,24.1,18.9,23.51,NE,45,0.0,0.0,80,0.00,,,0.00,WUHU216HW,2013-01-18 17:30:00,
2013-01-18 10:35:00,24.1,18.9,23.51,NE,45,0.0,0.0,80,0.00,,,0.00,WUHU216HW,2013-01-18 17:35:00,
2013-01-18 11:00:00,24.7,19.4,23.50,NE,45,0.0,0.0,80,0.00,,,0.00,WUHU216HW,2013-01-18 18:00:00,
2013-01-18 11:05:00,24.7,19.4,23.50,NE,45,0.0,0.0,80,0.00,,,0.00,WUHU216HW,2013-01-18 18:05:00,
2013-01-18 11:30:00,25.7,19.8,23.50,East,90,0.0,0.0,78,0.00,,,0.00,WUHU216HW,2013-01-18 18:30:00,
2013-01-18 11:35:00,25.7,19.8,23.50,East,90,0.0,0.0,78,0.00,,,0.00,WUHU216HW,2013-01-18 18:35:00,
2013-01-18 12:00:00,26.8,20.5,23.49,West,270,1.3,1.3,77,0.00,,,0.00,WUHU216HW,2013-01-18 19:00:00,
2013-01-18 12:05:00,26.8,20.5,23.49,West,270,1.3,1.3,77,0.00,,,0.00,WUHU216HW,2013-01-18 19:05:00,
2013-01-18 12:30:00,28.4,19.6,23.47,NW,315,4.3,4.3,69,0.00,,,0.00,WUHU216HW,2013-01-18 19:30:00,
2013-01-18 12:35:00,28.4,19.6,23.47,NW,315,4.3,4.3,69,0.00,,,0.00,WUHU216HW,2013-01-18 19:35:00,
2013-01-18 13:00:00,27.7,18.5,23.46,West,270,4.5,4.5,68,0.00,,,0.00,WUHU216HW,2013-01-18 20:00:00,
2013-01-18 13:05:00,27.7,18.5,23.46,West,270,4.5,4.5,68,0.00,,,0.00,WUHU216HW,2013-01-18 20:05:00,
2013-01-18 13:30:00,28.1,19.3,23.46,WNW,293,3.1,3.1,69,0.00,,,0.00,WUHU216HW,2013-01-18 20:30:00,
2013-01-18 13:35:00,28.1,19.3,23.46,WNW,293,3.1,3.1,69,0.00,,,0.00,WUHU216HW,2013-01-18 20:35:00,
2013-01-18 14:00:00,29.2,19.5,23.45,West,270,3.1,3.1,67,0.00,,,0.00,WUHU216HW,2013-01-18 21:00:00,
2013-01-18 14:05:00,29.2,19.5,23.45,West,270,3.1,3.1,67,0.00,,,0.00,WUHU216HW,2013-01-18 21:05:00,
2013-01-18 14:30:00,29.3,20.1,23.45,WNW,293,2.9,2.9,68,0.00,,,0.00,WUHU216HW,2013-01-18 21:30:00,
2013-01-18 14:35:00,29.3,20.1,23.45,WNW,293,2.9,2.9,68,0.00,,,0.00,WUHU216HW,2013-01-18 21:35:00,
2013-01-18 15:00:00,28.8,18.9,23.45,WNW,293,2.7,2.7,66,0.00,,,0.00,WUHU216HW,2013-01-18 22:00:00,
2013-01-18 15:05:00,28.8,18.9,23.45,WNW,293,2.7,2.7,66,0.00,,,0.00,WUHU216HW,2013-01-18 22:05:00,
2013-01-18 15:30:00,29.5,15.7,23.45,WNW,293,3.1,3.1,56,0.00,,,0.00,WUHU216HW,2013-01-18 22:30:00,
2013-01-18 15:35:00,29.5,15.7,23.45,WNW,293,3.1,3.1,56,0.00,,,0.00,WUHU216HW,2013-01-18 22:35:00,
2013-01-18 16:00:00,28.8,15.0,23.45,West,270,1.1,1.1,56,0.00,,,0.00,WUHU216HW,2013-01-18 23:00:00,
2013-01-18 16:05:00,28.8,15.0,23.45,West,270,1.1,1.1,56,0.00,,,0.00,WUHU216HW,2013-01-18 23:05:00,
2013-01-18 16:30:00,28.4,13.9,23.45,WSW,248,1.3,1.3,54,0.00,,,0.00,WUHU216HW,2013-01-18 23:30:00,
2013-01-18 16:35:00,28.4,13.9,23.45,WSW,248,1.3,1.3,54,0.00,,,0.00,WUHU216HW,2013-01-18 23:35:00,
2013-01-18 17:00:00,28.1,14.8,23.46,West,270,1.1,1.6,57,0.00,,,0.00,WUHU216HW,2013-01-19 00:00:00,
2013-01-18 17:05:00,28.1,14.8,23.46,West,270,1.1,1.6,57,0.00,,,0.00,WUHU216HW,2013-01-19 00:05:00,
2013-01-18 17:30:00,27.4,14.0,23.46,West,270,4.0,4.0,57,0.00,,,0.00,WUHU216HW,2013-01-19 00:30:00,
2013-01-18 17:35:00,27.4,14.0,23.46,West,270,4.0,4.0,57,0.00,,,0.00,WUHU216HW,2013-01-19 00:35:00,
2013-01-18 18:00:00,26.3,14.6,23.46,West,270,1.8,1.8,61,0.00,,,0.00,WUHU216HW,2013-01-19 01:00:00,
2013-01-18 18:05:00,26.3,14.6,23.46,West,270,1.8,1.8,61,0.00,,,0.00,WUHU216HW,2013-01-19 01:05:00,
2013-01-18 18:30:00,25.4,13.8,23.47,West,270,2.5,2.5,61,0.00,,,0.00,WUHU216HW,2013-01-19 01:30:00,
2013-01-18 18:35:00,25.4,13.8,23.47,West,270,2.5,2.5,61,0.00,,,0.00,WUHU216HW,2013-01-19 01:35:00,
2013-01-18 19:00:00,25.4,13.8,23.47,SW,225,1.3,1.8,61,0.00,,,0.00,WUHU216HW,2013-01-19 02:00:00,
2013-01-18 19:05:00,25.4,13.8,23.47,SW,225,1.3,1.8,61,0.00,,,0.00,WUHU216HW,2013-01-19 02:05:00,
2013-01-18 19:30:00,24.8,14.3,23.47,West,270,1.3,1.3,64,0.00,,,0.00,WUHU216HW,2013-01-19 02:30:00,
2013-01-18 19:35:00,24.8,14.3,23.47,West,270,1.3,1.3,64,0.00,,,0.00,WUHU216HW,2013-01-19 02:35:00,
2013-01-18 20:00:00,24.7,14.9,23.47,West,270,0.7,0.7,66,0.00,,,0.00,WUHU216HW,2013-01-19 03:00:00,
2013-01-18 20:05:00,24.7,14.9,23.47,West,270,0.7,0.7,66,0.00,,,0.00,WUHU216HW,2013-01-19 03:05:00,
2013-01-18 20:30:00,24.3,13.8,23.48,SW,225,1.6,1.6,64,0.00,,,0.00,WUHU216HW,2013-01-19 03:30:00,
2013-01-18 20:35:00,24.3,13.8,23.48,SW,225,1.6,1.6,64,0.00,,,0.00,WUHU216HW,2013-01-19 03:35:00,
2013-01-18 21:00:00,24.5,12.6,23.48,West,270,1.3,1.3,60,0.00,,,0.00,WUHU216HW,2013-01-19 04:00:00,
2013-01-18 21:05:00,24.5,12.6,23.48,West,270,1.3,1.3,60,0.00,,,0.00,WUHU216HW,2013-01-19 04:05:00,
2013-01-18 21:30:00,24.1,14.3,23.47,West,270,1.1,1.1,66,0.00,,,0.00,WUHU216HW,2013-01-19 04:30:00,
2013-01-18 21:35:00,24.1,14.3,23.47,West,270,1.1,1.1,66,0.00,,,0.00,WUHU216HW,2013-01-19 04:35:00,
2013-01-18 22:00:00,23.4,14.1,23.48,NW,315,0.4,0.4,67,0.00,,,0.00,WUHU216HW,2013-01-19 05:00:00,
2013-01-18 22:01:00,23.4,14.1,23.48,NW,315,0.4,0.4,67,0.00,,,0.00,WUHU216HW,2013-01-19 05:01:00,
2013-01-18 22:02:00,23.4,14.1,23.48,NW,315,0.4,0.4,67,0.00,,,0.00,WUHU216HW,2013-01-19 05:02:00,
2013-01-18 22:07:00,23.4,14.1,23.48,NW,315,0.4,0.4,67,0.00,,,0.00,WUHU216HW,2013-01-19 05:07:00,
2013-01-18 22:30:00,23.0,14.0,23.47,WSW,248,1.6,1.6,68,0.00,,,0.00,WUHU216HW,2013-01-19 05:30:00,
2013-01-18 22:35:00,23.0,14.0,23.47,WSW,248,1.6,1.6,68,0.00,,,0.00,WUHU216HW,2013-01-19 05:35:00,
2013-01-18 23:00:00,22.9,13.9,23.47,West,270,1.1,1.1,68,0.00,,,0.00,WUHU216HW,2013-01-19 06:00:00,
2013-01-18 23:05:00,22.9,13.9,23.47,West,270,1.1,1.1,68,0.00,,,0.00,WUHU216HW,2013-01-19 06:05:00,
2013-01-18 23:30:00,23.0,14.4,23.47,West,270,0.4,0.4,69,0.00,,,0.00,WUHU216HW,2013-01-19 06:30:00,
2013-01-18 23:35:00,23.0,14.4,23.47,West,270,0.4,0.4,69,0.00,,,0.00,WUHU216HW,2013-01-19 06:35:00,